SL-3 R/B

Satellite information

Favourite Embed

Satellite Type and Status

ROCKET BODYIN ORBIT

Key statistics

Satellite SL-3 R/B at a glance.

Uptime

16744

Days in orbit

Revolutions

≈ 14.1

Per day

Orbit

LEO

Low Earth Orbit

Inclination

81.2

Latest

Satellite identification and parameters

Extended collection of information and parameters for SL-3 R/B.

Object identification

Identified? True

Debris? False

Object name: SL-3 R/B

International designator: 1979-095B

Object number (NORAD): 11608

Object ID (CCSDS): 11608

Country: COMMONWEALTH OF INDEPENDENT STATES (CIS)

Current information (Y/N): Y

RCS size: LARGE

Orbital parameters

Period: 102.381 minutes

Inclination: 81.2163 deg

SMA: 7249.465 km

Apoapsis: 910.699 km

Periapsis: 831.961 km

RAAN: 179.419 deg

Eccentricy: 0.00543063

Argument of periapsis: 15.0153 deg

Mean anomaly: 345.2612 deg

Mean motion: 14.06513237 rev/day

Mean motion (dot): 0.00000361 rev/day2

B* drag term: 0.00020785754 1/REarth

Two-line elements (TLE)

Creation date: Sept. 3, 2025, 2:21 a.m.

Reference frame: TEME

Reference center: EARTH

Epoch: Sept. 2, 2025, 10:17 p.m. UTC

TLE line 0: 0 SL-3 R/B

TLE line 1: 1 11608U 79095B 25245.92897368 .00000361 00000-0 20786-3 0 9992

TLE line 2: 2 11608 81.2163 179.4190 0054306 15.0153 345.2612 14.06513237351434

Live tracking on map

Real-time ground track for satellite SL-3 R/B.

In-orbit conjunctions

A list of the most updated potential collisions computed for object SL-3 R/B.

Target Orbit TCA Probability of collision Miss distance Type
FENGYUN 1C DEB SSO 2025-06-23 20:15:18 0.0008184378 43.0 (m) DEBRIS
FENGYUN 1C DEB SSO 2024-12-13 04:48:39 0.0001451738 523.0 (m) DEBRIS
CZ-6A DEB SSO 2024-10-03 13:19:43 0.0001265571 643.0 (m) DEBRIS
FENGYUN 1C DEB SSO 2024-08-27 10:56:44 0.0001151437 398.0 (m) DEBRIS

Associated space launch

Second generation soviet meteorological satellite

SL-3 R/B was lifted into orbit during the mission ‘Vostok 8A92M | Meteor-2 5’, on board a Vostok 8A92M space rocket.

The launch took place on Oct. 31, 1979, 9:25 a.m. from 43/4 (43R).

For more information about the launch, click the button.

Launch to space Vostok 8A92M | Meteor-2 5
Vostok 8A92M | Meteor-2 5

Agency: N/A

Status: Launch Successful

Launch date: Oct. 31, 1979, 9:25 a.m. UTC

Rocket: Vostok 8A92M

Launch pad: 43/4 (43R)

Location: Plesetsk Cosmodrome, Russian Federation

...

Latest news about this satellite

There are no fresh news available about this satellite. Check back as we update our databases every day.


Newsletter sign-up

Weekly statistics, charts and insights to help you stay on top of the space industry.